Flag for U.S.A. Weather past 2 weeks in Columbus, Georgia, U.S.A.

Now
75 °F

Clear.


Feels Like: 75 °F
Forecast: 71 / 90 °F
Wind: 6 mph from Southwest

Location: Columbus Metropolitan Airport

Current Time: Sep 3, 2014 at 2:09:20 AM

Latest Report: Sep 3, 2014 at 1:51 AM


Visibility: 10 mi

Pressure: 30.02 "Hg

Humidity: 85%

Dew point: 70 °F

Location of ColumbusLocation

Historic Weather in Columbus — Graph

°F

Columbus temperature yesterday

Maximum temperature yesterday: 96 °F (at 4:51 PM)
Minimum temperature yesterday: 73 °F (at 2:51 AM)
Average temperature yesterday: 83 °F

Past Weeks' High & Low Weather Summary

 TemperatureHumidityPressure
High97 °F (Aug 22, 4:51 PM)97% (Aug 19, 12:51 AM)30.16 "Hg (Aug 19, 12:51 AM)
Low66 °F (Aug 29, 6:51 AM)20% (Aug 28, 3:51 PM)29.85 "Hg (Aug 24, 5:51 PM)
Average82 °F65%30.02 "Hg
* Reported Aug 19 12:51 AM — Sep 3 12:51 AM, Columbus, Weather by CustomWeather, © 2014

Note: Actual official high and low records may vary slightly from our data, if they occured in-between our weather recording intervals... More about our weather records

Advertising

Columbus weather history for previous 24 hours

 ConditionsComfort  
Time TempWeatherWind HumidityBarometerVisibility
12:51 AM
Sep 3
76 °FClear.9 mph82%30.03 "Hg10 mi
11:51 PM
Sep 2
77 °FPassing clouds.10 mph79%30.05 "Hg10 mi
10:51 PM80 °FPassing clouds.10 mph71%30.03 "Hg10 mi
9:51 PM83 °FClear.7 mph63%29.98 "Hg10 mi
8:51 PM88 °FSunny.5 mph50%29.97 "Hg10 mi
7:51 PM91 °FSunny.7 mph44%29.95 "Hg10 mi
6:51 PM93 °FSunny.9 mph40%29.93 "Hg10 mi
5:51 PM95 °FScattered clouds.9 mph39%29.94 "Hg10 mi
4:51 PM96 °FScattered clouds.6 mph37%29.96 "Hg10 mi
3:51 PM93 °FScattered clouds.No wind40%29.98 "Hg10 mi
2:51 PM93 °FSunny.7 mph41%30.01 "Hg10 mi
1:51 PM89 °FScattered clouds.No wind52%30.05 "Hg10 mi
12:51 PM89 °FScattered clouds.6 mph53%30.07 "Hg10 mi
11:51 AM89 °FScattered clouds.No wind57%30.08 "Hg10 mi
10:51 AM85 °FSunny.6 mph68%30.10 "Hg10 mi
9:51 AM82 °FSunny.No wind72%30.11 "Hg10 mi
8:51 AM77 °FSunny.3 mph85%30.11 "Hg10 mi
7:51 AM73 °FClear.No wind94%30.09 "Hg10 mi
6:51 AM74 °FClear.No wind88%30.06 "Hg10 mi
5:51 AM74 °FClear.No wind88%30.05 "Hg10 mi
4:51 AM75 °FClear.No wind88%30.03 "Hg10 mi
3:51 AM74 °FClear.No wind91%30.03 "Hg10 mi
2:51 AM73 °FClear.No wind94%30.05 "Hg10 mi
Weather by CustomWeather, © 2014

See weather overviewHow to use our weather pages